QPF
0.05 0.06 0.05 0.04 0.04 0.04 0.04 0.05 0.05 0.04 0.02 0.02 0.02 0.02 0.02 0.03 0.04 0.05 0.03 0.03 0.03 0.02 0.03 0.03 0.02 0.02 0.02 0.02 0.01 0.01 0.01 0.01 0.01 0.01 0.01 0.01 0.01 0.01 0.01 0.01 0.01 0.01 0.01
0.03 0.03 0.03 0.03 0.03 0.04 0.03 0.04 0.05 0.04 0.04 0.04 0.03 0.03 0.03 0.03 0.03 0.05 0.04 0.02 0.02 0.02 0.03 0.04 0.04 0.04 0.03 0.03 0.02 0.02 0.02 0.02 0.02 0.01 0.01 0.02 0.02 0.01 0.02 0.02 0.01 0.01 0.01
0.02 0.02 0.02 0.03 0.03 0.04 0.04 0.04 0.04 0.05 0.05 0.05 0.05 0.04 0.05 0.05 0.05 0.06 0.05 0.03 0.02 0.03 0.03 0.04 0.06 0.07 0.08 0.09 0.07 0.05 0.05 0.05 0.04 0.03 0.03 0.03 0.03 0.02 0.02 0.02 0.03 0.03 0.02
0.02 0.03 0.03 0.03 0.03 0.03 0.04 0.04 0.05 0.05 0.06 0.07 0.07 0.06 0.06 0.07 0.05 0.08 0.07 0.04 0.03 0.03 0.03 0.04 0.06 0.07 0.09 0.12 0.15 0.12 0.09 0.06 0.04 0.04 0.05 0.05 0.05 0.04 0.03 0.03 0.03 0.03 0.03
0.05 0.04 0.04 0.04 0.04 0.04 0.04 0.04 0.07 0.06 0.06 0.05 0.05 0.06 0.07 0.08 0.08 0.08 0.08 0.06 0.06 0.06 0.07 0.06 0.09 0.09 0.11 0.13 0.16 0.15 0.12 0.08 0.06 0.06 0.06 0.06 0.07 0.06 0.05 0.04 0.04 0.03 0.03
0.08 0.06 0.04 0.07 0.08 0.06 0.04 0.04 0.05 0.06 0.05 0.04 0.05 0.06 0.07 0.08 0.12 0.15 0.14 0.11 0.11 0.11 0.13 0.15 0.16 0.15 0.14 0.15 0.15 0.15 0.15 0.12 0.09 0.09 0.08 0.08 0.08 0.07 0.06 0.05 0.04 0.04 0.04
0.06 0.06 0.06 0.07 0.05 0.04 0.03 0.03 0.03 0.03 0.04 0.04 0.07 0.06 0.06 0.06 0.10 0.13 0.14 0.15 0.14 0.16 0.18 0.21 0.20 0.17 0.12 0.11 0.11 0.12 0.15 0.14 0.12 0.10 0.08 0.08 0.08 0.07 0.06 0.05 0.04 0.03 0.04
0.04 0.04 0.04 0.05 0.05 0.04 0.04 0.04 0.04 0.04 0.06 0.07 0.07 0.07 0.05 0.08 0.10 0.09 0.12 0.18 0.18 0.20 0.23 0.21 0.18 0.17 0.11 0.08 0.08 0.10 0.13 0.13 0.12 0.10 0.09 0.10 0.08 0.06 0.06 0.05 0.05 0.05 0.03
0.03 0.03 0.04 0.05 0.05 0.04 0.03 0.03 0.05 0.06 0.06 0.06 0.06 0.05 0.05 0.05 0.06 0.09 0.14 0.23 0.28 0.23 0.20 0.17 0.15 0.14 0.16 0.15 0.12 0.11 0.11 0.11 0.12 0.12 0.14 0.14 0.09 0.07 0.06 0.05 0.05 0.04 0.04
0.02 0.02 0.03 0.03 0.03 0.04 0.04 0.02 0.03 0.05 0.04 0.04 0.05 0.06 0.05 0.05 0.05 0.07 0.10 0.14 0.17 0.18 0.17 0.14 0.12 0.09 0.11 0.13 0.14 0.20 0.21 0.20 0.18 0.16 0.14 0.13 0.11 0.09 0.08 0.09 0.10 0.09 0.07
0.02 0.02 0.02 0.02 0.02 0.03 0.03 0.03 0.04 0.05 0.05 0.05 0.07 0.08 0.07 0.07 0.07 0.07 0.10 0.14 0.17 0.20 0.15 0.11 0.11 0.09 0.11 0.12 0.14 0.19 0.25 0.26 0.23 0.17 0.15 0.15 0.12 0.11 0.11 0.12 0.15 0.15 0.14
0.04 0.04 0.04 0.04 0.03 0.02 0.02 0.03 0.05 0.05 0.06 0.07 0.07 0.07 0.08 0.08 0.08 0.09 0.10 0.11 0.13 0.16 0.17 0.13 0.12 0.10 0.13 0.14 0.14 0.17 0.24 0.25 0.21 0.17 0.15 0.13 0.10 0.09 0.10 0.13 0.15 0.14 0.15
0.04 0.04 0.04 0.04 0.02 0.02 0.03 0.04 0.06 0.06 0.07 0.07 0.05 0.05 0.07 0.08 0.08 0.08 0.08 0.09 0.08 0.07 0.10 0.13 0.13 0.17 0.21 0.21 0.22 0.25 0.26 0.24 0.19 0.15 0.14 0.13 0.10 0.10 0.10 0.09 0.10 0.11 0.12
0.04 0.04 0.04 0.03 0.03 0.03 0.04 0.06 0.07 0.06 0.07 0.07 0.05 0.05 0.06 0.07 0.08 0.09 0.09 0.09 0.07 0.06 0.08 0.11 0.14 0.21 0.26 0.24 0.23 0.24 0.21 0.20 0.16 0.15 0.13 0.12 0.12 0.12 0.11 0.08 0.07 0.08 0.08
0.03 0.02 0.02 0.04 0.04 0.03 0.04 0.05 0.04 0.04 0.04 0.05 0.05 0.05 0.06 0.07 0.07 0.07 0.08 0.08 0.08 0.07 0.08 0.08 0.11 0.19 0.23 0.20 0.20 0.17 0.14 0.11 0.11 0.10 0.09 0.07 0.07 0.06 0.06 0.07 0.07 0.08 0.07
0.02 0.03 0.04 0.04 0.03 0.02 0.03 0.04 0.04 0.05 0.05 0.06 0.06 0.06 0.06 0.06 0.07 0.08 0.08 0.08 0.08 0.08 0.09 0.10 0.11 0.16 0.23 0.17 0.14 0.10 0.08 0.06 0.07 0.08 0.08 0.06 0.04 0.03 0.03 0.05 0.05 0.06 0.06
0.03 0.04 0.04 0.04 0.03 0.03 0.05 0.06 0.07 0.05 0.06 0.06 0.06 0.05 0.04 0.06 0.09 0.10 0.10 0.08 0.07 0.07 0.08 0.10 0.12 0.12 0.15 0.13 0.10 0.10 0.07 0.06 0.05 0.07 0.09 0.09 0.07 0.05 0.05 0.05 0.05 0.05 0.06
0.02 0.02 0.03 0.03 0.04 0.05 0.06 0.07 0.05 0.05 0.06 0.05 0.05 0.05 0.06 0.06 0.05 0.05 0.05 0.04 0.04 0.05 0.06 0.07 0.07 0.08 0.08 0.09 0.09 0.10 0.09 0.09 0.09 0.09 0.08 0.07 0.06 0.05 0.04 0.05 0.07 0.08 0.08
0.02 0.02 0.03 0.04 0.04 0.04 0.05 0.04 0.04 0.04 0.05 0.06 0.06 0.04 0.04 0.05 0.05 0.05 0.04 0.03 0.03 0.04 0.04 0.04 0.03 0.03 0.05 0.05 0.06 0.08 0.11 0.12 0.11 0.09 0.09 0.07 0.06 0.05 0.04 0.03 0.04 0.04 0.05
0.02 0.02 0.04 0.04 0.04 0.05 0.04 0.03 0.03 0.04 0.05 0.06 0.05 0.03 0.01 0.02 0.02 0.01 0.02 0.03 0.04 0.04 0.03 0.03 0.03 0.04 0.05 0.06 0.07 0.08 0.09 0.09 0.09 0.08 0.08 0.06 0.05 0.04 0.03 0.02 0.02 0.03 0.03
0.02 0.02 0.02 0.02 0.03 0.04 0.04 0.03 0.02 0.02 0.03 0.04 0.04 0.03 0.02 0.03 0.04 0.04 0.03 0.02 0.03 0.04 0.03 0.03 0.04 0.06 0.07 0.07 0.07 0.08 0.08 0.08 0.07 0.08 0.08 0.06 0.05 0.04 0.03 0.03 0.03 0.03 0.02
0.02 0.02 0.02 0.02 0.02 0.03 0.04 0.03 0.02 0.02 0.03 0.03 0.03 0.03 0.02 0.02 0.03 0.04 0.04 0.04 0.03 0.04 0.04 0.04 0.03 0.03 0.04 0.05 0.05 0.06 0.05 0.05 0.06 0.07 0.07 0.06 0.04 0.03 0.03 0.03 0.03 0.02 0.01
0.03 0.02 0.01 0.01 0.01 0.01 0.02 0.03 0.05 0.06 0.06 0.06 0.05 0.02 0.01 0.01 0.01 0.02 0.03 0.04 0.04 0.03 0.03 0.03 0.03 0.03 0.02 0.03 0.03 0.03 0.04 0.04 0.04 0.03 0.03 0.02 0.02 0.01 0.01 0.01 0.01 0.01 0.01
0.01 0.01 0.01 0.01 0.00 0.00 0.01 0.02 0.06 0.07 0.05 0.03 0.02 0.01 0.00 0.00 0.00 0.01 0.02 0.03 0.02 0.02 0.01 0.01 0.01 0.02 0.02 0.02 0.02 0.01 0.01 0.01 0.01 0.01 0.01 0.01 0.01 0.01 0.00 0.01 0.01 0.01 0.01
0.02 0.02 0.03 0.01 0.00 0.00 0.01 0.01 0.02 0.01 0.01 0.00 0.00 0.00 0.01 0.00 0.01 0.02 0.02 0.02 0.01 0.01 0.01 0.01 0.01 0.01 0.02 0.02 0.01 0.00 0.00 0.01 0.01 0.02 0.02 0.02 0.01 0.01 0.01 0.01 0.01 0.01 0.01
0.03 0.04 0.03 0.01 0.00 0.00 0.01 0.00 0.00 0.00 0.00 0.00 0.00 0.00 0.00 0.00 0.01 0.01 0.02 0.01 0.01 0.01 0.01 0.01 0.01 0.01 0.01 0.01 0.01 0.00 0.01 0.01 0.01 0.02 0.01 0.01 0.01 0.01 0.01 0.01 0.00 0.00 0.00
MSLP
1017.14 1017.15 1017.11 1017.04 1016.94 1016.83 1016.73 1016.65 1016.60 1016.56 1016.55 1016.57 1016.60 1016.65 1016.73 1016.84 1016.99 1017.17 1017.37 1017.58 1017.81 1018.02 1018.22 1018.40 1018.55 1018.69 1018.81 1018.91 1019.00 1019.10 1019.19 1019.29 1019.39 1019.50 1019.63 1019.76 1019.91 1020.05 1020.18 1020.30 1020.40 1020.48 1020.55
1016.94 1016.99 1016.99 1016.96 1016.90 1016.82 1016.74 1016.66 1016.60 1016.56 1016.54 1016.55 1016.57 1016.61 1016.68 1016.76 1016.86 1016.99 1017.14 1017.31 1017.50 1017.70 1017.91 1018.11 1018.31 1018.49 1018.65 1018.79 1018.91 1019.01 1019.10 1019.19 1019.28 1019.39 1019.51 1019.65 1019.79 1019.94 1020.08 1020.20 1020.30 1020.38 1020.44
1016.67 1016.75 1016.80 1016.83 1016.83 1016.80 1016.76 1016.71 1016.66 1016.63 1016.61 1016.61 1016.62 1016.65 1016.70 1016.74 1016.80 1016.87 1016.95 1017.06 1017.19 1017.35 1017.53 1017.73 1017.95 1018.15 1018.35 1018.52 1018.66 1018.78 1018.88 1018.96 1019.05 1019.15 1019.27 1019.41 1019.55 1019.70 1019.84 1019.97 1020.07 1020.16 1020.25
1016.38 1016.47 1016.57 1016.66 1016.73 1016.78 1016.79 1016.77 1016.75 1016.73 1016.71 1016.72 1016.73 1016.75 1016.78 1016.80 1016.82 1016.83 1016.85 1016.88 1016.93 1017.02 1017.14 1017.31 1017.50 1017.70 1017.91 1018.10 1018.26 1018.39 1018.50 1018.60 1018.69 1018.79 1018.90 1019.03 1019.17 1019.32 1019.47 1019.60 1019.72 1019.83 1019.95
1016.11 1016.21 1016.35 1016.49 1016.63 1016.73 1016.79 1016.82 1016.82 1016.81 1016.80 1016.81 1016.83 1016.86 1016.89 1016.91 1016.91 1016.88 1016.84 1016.80 1016.77 1016.76 1016.81 1016.90 1017.03 1017.20 1017.39 1017.57 1017.74 1017.88 1018.01 1018.11 1018.21 1018.31 1018.42 1018.55 1018.69 1018.83 1018.98 1019.12 1019.26 1019.39 1019.54
1015.90 1015.99 1016.14 1016.32 1016.50 1016.64 1016.74 1016.79 1016.81 1016.80 1016.80 1016.82 1016.86 1016.92 1016.98 1017.02 1017.04 1017.00 1016.93 1016.83 1016.71 1016.62 1016.56 1016.56 1016.61 1016.71 1016.85 1017.01 1017.17 1017.31 1017.45 1017.57 1017.67 1017.78 1017.89 1018.01 1018.14 1018.27 1018.41 1018.56 1018.71 1018.86 1019.04
1015.77 1015.83 1015.97 1016.16 1016.35 1016.51 1016.62 1016.68 1016.69 1016.68 1016.68 1016.72 1016.78 1016.89 1017.00 1017.09 1017.15 1017.14 1017.07 1016.93 1016.77 1016.59 1016.44 1016.33 1016.28 1016.30 1016.38 1016.50 1016.63 1016.78 1016.91 1017.04 1017.15 1017.26 1017.37 1017.48 1017.59 1017.71 1017.83 1017.96 1018.11 1018.27 1018.45
1015.72 1015.73 1015.85 1016.01 1016.19 1016.34 1016.44 1016.47 1016.46 1016.44 1016.44 1016.48 1016.58 1016.73 1016.91 1017.07 1017.20 1017.24 1017.20 1017.07 1016.87 1016.64 1016.42 1016.23 1016.10 1016.04 1016.05 1016.12 1016.23 1016.36 1016.49 1016.61 1016.73 1016.83 1016.93 1017.01 1017.10 1017.18 1017.27 1017.37 1017.49 1017.63 1017.79
1015.74 1015.71 1015.78 1015.91 1016.05 1016.16 1016.22 1016.22 1016.17 1016.12 1016.11 1016.15 1016.27 1016.47 1016.70 1016.94 1017.14 1017.26 1017.27 1017.17 1016.98 1016.73 1016.47 1016.23 1016.05 1015.94 1015.90 1015.94 1016.02 1016.13 1016.25 1016.36 1016.46 1016.54 1016.60 1016.65 1016.69 1016.73 1016.76 1016.81 1016.87 1016.96 1017.08
1015.83 1015.76 1015.78 1015.86 1015.96 1016.02 1016.03 1015.98 1015.90 1015.81 1015.76 1015.80 1015.93 1016.14 1016.42 1016.71 1016.97 1017.15 1017.22 1017.17 1017.02 1016.80 1016.55 1016.32 1016.12 1016.00 1015.95 1015.97 1016.03 1016.12 1016.22 1016.31 1016.37 1016.41 1016.42 1016.42 1016.39 1016.36 1016.32 1016.28 1016.26 1016.27 1016.32
1015.97 1015.87 1015.85 1015.89 1015.93 1015.95 1015.92 1015.82 1015.70 1015.57 1015.49 1015.50 1015.61 1015.82 1016.10 1016.41 1016.70 1016.92 1017.05 1017.06 1016.97 1016.81 1016.62 1016.44 1016.29 1016.20 1016.18 1016.21 1016.27 1016.34 1016.41 1016.45 1016.46 1016.44 1016.38 1016.30 1016.19 1016.07 1015.94 1015.81 1015.70 1015.60 1015.55
1016.14 1016.02 1015.98 1015.98 1016.00 1015.98 1015.91 1015.78 1015.62 1015.46 1015.35 1015.32 1015.39 1015.56 1015.81 1016.09 1016.38 1016.61 1016.77 1016.83 1016.82 1016.75 1016.66 1016.57 1016.52 1016.51 1016.54 1016.61 1016.68 1016.74 1016.77 1016.76 1016.70 1016.60 1016.45 1016.28 1016.08 1015.87 1015.65 1015.42 1015.20 1015.00 1014.84
1016.31 1016.20 1016.15 1016.14 1016.13 1016.09 1016.01 1015.87 1015.69 1015.51 1015.37 1015.29 1015.30 1015.41 1015.59 1015.82 1016.06 1016.27 1016.43 1016.54 1016.60 1016.63 1016.66 1016.70 1016.78 1016.88 1017.01 1017.13 1017.23 1017.28 1017.28 1017.20 1017.07 1016.87 1016.64 1016.37 1016.08 1015.78 1015.47 1015.16 1014.85 1014.54 1014.27
1016.48 1016.38 1016.33 1016.32 1016.30 1016.26 1016.18 1016.04 1015.87 1015.69 1015.52 1015.41 1015.36 1015.40 1015.49 1015.63 1015.80 1015.96 1016.10 1016.23 1016.36 1016.49 1016.65 1016.83 1017.05 1017.28 1017.51 1017.71 1017.84 1017.90 1017.86 1017.73 1017.52 1017.24 1016.92 1016.58 1016.22 1015.85 1015.47 1015.08 1014.69 1014.31 1013.94
1016.62 1016.55 1016.51 1016.49 1016.48 1016.45 1016.38 1016.26 1016.11 1015.94 1015.78 1015.64 1015.55 1015.51 1015.52 1015.56 1015.64 1015.73 1015.84 1015.98 1016.15 1016.37 1016.64 1016.96 1017.32 1017.68 1018.01 1018.29 1018.47 1018.53 1018.47 1018.30 1018.04 1017.70 1017.32 1016.92 1016.51 1016.10 1015.69 1015.26 1014.82 1014.38 1013.94
1016.74 1016.68 1016.65 1016.63 1016.63 1016.60 1016.55 1016.47 1016.35 1016.22 1016.07 1015.93 1015.82 1015.72 1015.66 1015.62 1015.61 1015.63 1015.69 1015.82 1016.01 1016.29 1016.65 1017.08 1017.55 1018.03 1018.46 1018.81 1019.03 1019.12 1019.07 1018.88 1018.59 1018.23 1017.83 1017.42 1017.00 1016.58 1016.16 1015.73 1015.27 1014.80 1014.31
1016.83 1016.78 1016.75 1016.73 1016.72 1016.71 1016.68 1016.63 1016.55 1016.46 1016.35 1016.23 1016.11 1016.00 1015.88 1015.78 1015.70 1015.66 1015.68 1015.77 1015.96 1016.27 1016.68 1017.18 1017.73 1018.29 1018.79 1019.21 1019.48 1019.61 1019.58 1019.42 1019.15 1018.82 1018.44 1018.06 1017.68 1017.30 1016.91 1016.49 1016.05 1015.58 1015.08
1016.90 1016.85 1016.82 1016.80 1016.78 1016.77 1016.75 1016.73 1016.69 1016.64 1016.58 1016.50 1016.40 1016.29 1016.16 1016.02 1015.90 1015.80 1015.77 1015.82 1015.99 1016.29 1016.71 1017.24 1017.83 1018.43 1018.98 1019.44 1019.77 1019.96 1019.99 1019.89 1019.69 1019.42 1019.13 1018.82 1018.51 1018.20 1017.87 1017.51 1017.10 1016.64 1016.16
1016.94 1016.91 1016.87 1016.84 1016.82 1016.80 1016.79 1016.79 1016.78 1016.77 1016.75 1016.71 1016.65 1016.56 1016.44 1016.29 1016.14 1016.01 1015.94 1015.95 1016.07 1016.33 1016.72 1017.23 1017.81 1018.42 1018.99 1019.49 1019.87 1020.12 1020.24 1020.24 1020.15 1020.00 1019.82 1019.63 1019.43 1019.21 1018.96 1018.66 1018.31 1017.89 1017.44
1016.96 1016.94 1016.92 1016.89 1016.86 1016.84 1016.83 1016.82 1016.83 1016.85 1016.86 1016.87 1016.85 1016.79 1016.70 1016.56 1016.41 1016.25 1016.14 1016.10 1016.17 1016.36 1016.69 1017.14 1017.68 1018.26 1018.83 1019.35 1019.79 1020.11 1020.33 1020.45 1020.50 1020.49 1020.46 1020.41 1020.33 1020.22 1020.07 1019.85 1019.55 1019.19 1018.77
1016.95 1016.96 1016.96 1016.95 1016.92 1016.90 1016.87 1016.86 1016.87 1016.90 1016.93 1016.97 1016.98 1016.96 1016.90 1016.79 1016.64 1016.48 1016.33 1016.25 1016.25 1016.37 1016.62 1016.99 1017.46 1017.99 1018.53 1019.06 1019.53 1019.94 1020.26 1020.51 1020.71 1020.86 1020.98 1021.07 1021.13 1021.14 1021.08 1020.94 1020.71 1020.40 1020.04
1016.90 1016.96 1016.99 1017.00 1016.99 1016.96 1016.92 1016.90 1016.90 1016.92 1016.96 1017.01 1017.05 1017.06 1017.03 1016.95 1016.82 1016.66 1016.50 1016.38 1016.32 1016.37 1016.53 1016.80 1017.19 1017.65 1018.16 1018.67 1019.17 1019.64 1020.06 1020.43 1020.77 1021.07 1021.33 1021.56 1021.74 1021.86 1021.89 1021.82 1021.67 1021.42 1021.12
1016.79 1016.90 1016.98 1017.02 1017.03 1017.00 1016.95 1016.91 1016.88 1016.89 1016.92 1016.98 1017.04 1017.08 1017.08 1017.04 1016.94 1016.79 1016.63 1016.48 1016.38 1016.36 1016.44 1016.63 1016.93 1017.32 1017.77 1018.27 1018.77 1019.28 1019.77 1020.24 1020.68 1021.10 1021.49 1021.83 1022.12 1022.33 1022.44 1022.46 1022.37 1022.19 1021.96
1016.63 1016.79 1016.91 1016.98 1017.00 1016.97 1016.91 1016.84 1016.80 1016.78 1016.80 1016.86 1016.93 1017.00 1017.04 1017.03 1016.97 1016.86 1016.72 1016.56 1016.44 1016.38 1016.40 1016.52 1016.74 1017.06 1017.46 1017.91 1018.41 1018.92 1019.45 1019.97 1020.48 1020.98 1021.45 1021.88 1022.24 1022.52 1022.71 1022.80 1022.79 1022.69 1022.54
1016.43 1016.61 1016.75 1016.83 1016.85 1016.82 1016.75 1016.66 1016.59 1016.56 1016.58 1016.64 1016.73 1016.82 1016.91 1016.95 1016.94 1016.87 1016.76 1016.64 1016.52 1016.44 1016.43 1016.50 1016.66 1016.92 1017.25 1017.66 1018.12 1018.61 1019.13 1019.66 1020.20 1020.73 1021.24 1021.71 1022.12 1022.47 1022.72 1022.88 1022.94 1022.93 1022.87
1016.22 1016.38 1016.51 1016.58 1016.59 1016.53 1016.44 1016.34 1016.26 1016.22 1016.23 1016.30 1016.42 1016.55 1016.68 1016.78 1016.83 1016.83 1016.78 1016.69 1016.60 1016.53 1016.51 1016.56 1016.68 1016.88 1017.16 1017.51 1017.92 1018.36 1018.84 1019.34 1019.86 1020.38 1020.88 1021.37 1021.81 1022.19 1022.50 1022.72 1022.87 1022.95 1022.98
Thickness
5757 5756 5756 5756 5756 5755 5755 5754 5754 5754 5754 5754 5755 5754 5754 5754 5752 5751 5751 5750 5748 5746 5745 5743 5741 5740 5738 5737 5735 5733 5732 5730 5729 5727 5725 5724 5722 5721 5720 5718 5717 5716 5714
5758 5758 5757 5757 5757 5756 5756 5755 5755 5755 5754 5755 5755 5755 5755 5754 5753 5752 5751 5750 5749 5747 5746 5744 5743 5741 5739 5738 5736 5734 5733 5731 5730 5728 5726 5725 5723 5722 5720 5719 5718 5716 5715
5759 5758 5758 5758 5758 5758 5757 5757 5756 5756 5755 5755 5755 5756 5756 5755 5754 5753 5752 5751 5750 5748 5747 5746 5745 5743 5741 5739 5737 5736 5734 5732 5731 5729 5727 5726 5724 5723 5721 5720 5718 5717 5715
5760 5759 5758 5758 5759 5758 5758 5757 5756 5754 5754 5754 5754 5755 5755 5755 5754 5753 5752 5752 5751 5750 5748 5747 5746 5745 5743 5741 5739 5737 5735 5734 5732 5731 5729 5727 5725 5724 5722 5721 5719 5718 5716
5761 5760 5759 5759 5759 5758 5758 5757 5756 5754 5752 5752 5753 5754 5754 5754 5754 5754 5753 5752 5751 5750 5749 5748 5747 5746 5744 5742 5741 5739 5737 5735 5733 5732 5730 5728 5726 5725 5723 5722 5720 5719 5717
5761 5761 5760 5760 5759 5758 5757 5756 5755 5754 5753 5753 5753 5753 5753 5753 5753 5753 5753 5752 5750 5749 5748 5747 5746 5745 5744 5743 5741 5739 5737 5735 5733 5731 5730 5729 5727 5726 5724 5722 5720 5719 5717
5762 5761 5761 5760 5759 5757 5756 5756 5755 5753 5752 5753 5749 5746 5748 5751 5751 5751 5751 5750 5749 5748 5747 5745 5744 5744 5743 5741 5740 5739 5737 5735 5733 5731 5729 5728 5727 5725 5724 5722 5720 5718 5717
5762 5761 5760 5759 5759 5757 5756 5755 5754 5752 5751 5752 5747 5741 5737 5740 5745 5749 5749 5748 5747 5746 5745 5744 5742 5741 5740 5739 5738 5737 5735 5734 5732 5730 5728 5727 5725 5724 5722 5720 5719 5717 5716
5762 5761 5760 5759 5758 5757 5755 5756 5755 5752 5749 5750 5750 5743 5736 5732 5736 5741 5744 5745 5744 5743 5742 5741 5739 5738 5737 5736 5734 5733 5732 5731 5730 5728 5727 5725 5723 5722 5720 5719 5717 5715 5714
5762 5762 5761 5760 5759 5758 5756 5756 5756 5754 5751 5747 5748 5748 5746 5742 5734 5732 5736 5739 5740 5739 5738 5738 5737 5735 5735 5733 5731 5730 5729 5727 5726 5725 5724 5722 5721 5719 5718 5716 5715 5713 5712
5762 5762 5761 5760 5759 5758 5757 5757 5756 5755 5752 5749 5746 5745 5744 5742 5739 5732 5727 5730 5732 5734 5734 5734 5733 5732 5730 5729 5727 5726 5725 5723 5721 5720 5719 5718 5717 5715 5714 5712 5711 5710 5709
5761 5762 5761 5760 5759 5758 5757 5756 5755 5753 5751 5749 5747 5745 5742 5739 5736 5733 5727 5725 5725 5726 5729 5729 5727 5726 5725 5723 5722 5721 5719 5717 5716 5715 5713 5712 5711 5710 5708 5708 5707 5706 5704
5759 5760 5760 5759 5758 5757 5757 5755 5753 5751 5750 5748 5746 5745 5743 5741 5739 5735 5729 5724 5722 5721 5722 5721 5721 5720 5718 5717 5715 5714 5713 5711 5710 5709 5708 5706 5704 5703 5702 5701 5700 5700 5699
5759 5760 5759 5758 5757 5756 5755 5753 5751 5750 5748 5746 5745 5743 5742 5740 5738 5735 5730 5724 5717 5714 5714 5713 5713 5713 5711 5710 5708 5706 5705 5704 5702 5701 5700 5698 5697 5696 5695 5694 5693 5692 5691
5760 5759 5758 5756 5755 5754 5753 5751 5748 5747 5745 5743 5741 5740 5738 5737 5736 5733 5731 5727 5719 5710 5707 5707 5705 5705 5704 5702 5700 5699 5697 5695 5694 5692 5691 5690 5689 5688 5686 5685 5684 5683 5682
5759 5757 5755 5754 5752 5751 5749 5747 5745 5744 5742 5740 5738 5736 5734 5733 5731 5730 5728 5725 5722 5714 5705 5702 5700 5698 5697 5695 5693 5691 5688 5686 5684 5683 5682 5681 5680 5678 5677 5675 5674 5673 5673
5756 5754 5752 5750 5748 5746 5745 5743 5740 5739 5736 5734 5733 5731 5729 5728 5726 5724 5723 5720 5717 5712 5703 5697 5695 5692 5690 5687 5684 5683 5681 5678 5675 5674 5672 5671 5669 5668 5666 5665 5664 5662 5662
5753 5751 5749 5746 5744 5742 5740 5738 5735 5733 5730 5728 5726 5725 5723 5723 5720 5719 5717 5714 5710 5707 5701 5692 5687 5684 5682 5680 5677 5674 5671 5669 5666 5663 5661 5660 5658 5657 5655 5654 5652 5650 5650
5749 5747 5745 5742 5739 5737 5735 5733 5730 5727 5725 5723 5721 5719 5717 5716 5713 5712 5710 5707 5704 5701 5696 5689 5682 5678 5675 5672 5668 5665 5662 5659 5656 5653 5650 5648 5646 5645 5644 5642 5640 5639 5638
5745 5742 5740 5737 5735 5732 5730 5728 5725 5722 5719 5718 5716 5714 5712 5711 5708 5706 5704 5700 5697 5692 5688 5682 5676 5671 5667 5664 5661 5656 5652 5649 5646 5643 5640 5637 5635 5634 5632 5630 5629 5627 5625
5741 5738 5735 5732 5730 5728 5725 5723 5720 5717 5713 5711 5710 5708 5707 5705 5704 5701 5698 5694 5691 5685 5680 5675 5669 5665 5660 5656 5652 5649 5644 5639 5636 5633 5630 5627 5625 5623 5621 5619 5617 5615 5613
5736 5733 5729 5727 5725 5723 5720 5718 5715 5711 5708 5705 5703 5701 5700 5698 5696 5695 5692 5689 5686 5681 5675 5669 5663 5658 5654 5650 5646 5642 5636 5631 5626 5624 5621 5616 5614 5611 5609 5607 5605 5604 5602
5730 5727 5724 5721 5718 5716 5715 5713 5710 5706 5702 5699 5697 5694 5693 5691 5689 5687 5684 5682 5678 5675 5672 5666 5659 5654 5649 5645 5641 5635 5630 5625 5621 5617 5613 5607 5605 5601 5599 5597 5595 5592 5590
5726 5722 5719 5715 5713 5711 5709 5707 5703 5699 5696 5692 5690 5687 5685 5682 5681 5679 5676 5672 5668 5665 5662 5659 5655 5650 5646 5642 5637 5632 5625 5619 5614 5610 5607 5600 5596 5593 5591 5588 5585 5582 5579
5721 5717 5713 5710 5707 5704 5703 5701 5697 5693 5688 5685 5682 5680 5678 5675 5673 5671 5667 5662 5658 5655 5653 5650 5647 5643 5639 5635 5631 5625 5618 5612 5604 5601 5599 5594 5588 5585 5581 5578 5576 5573 5570
5717 5712 5708 5704 5702 5698 5696 5694 5691 5686 5681 5677 5674 5672 5670 5667 5665 5663 5659 5654 5649 5645 5643 5640 5637 5634 5631 5627 5623 5619 5613 5606 5598 5594 5592 5588 5582 5577 5572 5570 5568 5564 5561